Yinhe 2-02

operational
NORAD ID: 51947 Int'l Des: NNA 2022-023 Owner: YINHE Country: CN Constellation: yinhe
LEOCIRCULAR

Über Yinhe 2-02

Beschreibung wird geladen...

Live-Position

3D-Globus wird geladen...

Nächste Überflüge

Höhenverlauf

Altitude vs Time

uPlot chart will show altitude changes over time

Zweizeiliger Elementsatz

1 51947U 22023B 26062.23133707 .00022338 00000-0 97570-3 0 9996
2 51947 63.4746 269.5221 0093429 346.7304 13.1352 15.18209547221630
Epoch: 3. März 2026 • Age: 32 hours

Aktueller Status

Höhe 534.1 km
Geschwindigkeit 7.59 km/s
Subsatellitenpunkt -60.11°S, 136.17°W
Startdatum 5. März 2022
Alter 3.9 years
Typ other

Technische Details

Klassifizierung Payload
Masse 190.00 kg
Trockenmasse 180.00 kg
Gesamtmasse 190.00 kg
Länge 2.00 m
Durchmesser 1.00 m
Spannweite 5.00 m
Form Box+pan
Hersteller YINHE
Bus-Typ YH
Phasenstatus In Orbit
Besitzer/Staat YINHE/CN

Große Konstellationen

Loading constellations...